Flag for Brazil Weather past 2 weeks in Cuiabá, Mato Grosso, Brazil

Now
75 °F

Clear.


Feels Like: 75 °F
Forecast: 73 / 89 °F
Wind: 2 mph from Southeast

Location: Cuiaba Aeroporto


UV Index: 5 (Moderate)

Visibility: 10 mi


Pressure: 29.89 "Hg

Humidity: 83%

Dew point: 70 °F

Location of CuiabáLocation

Historic Weather in Cuiabá

°F

Cuiabá temperature yesterday

Maximum temperature yesterday: 77 °F (at 2:00 PM)
Minimum temperature yesterday: 68 °F (at 1:00 AM)
Average temperature yesterday: 72 °F

Past Weeks' High & Low Weather Summary

 TemperatureHumidityPressure
High93 °F (Apr 3, 2:00 PM)100% (Apr 3, 7:00 PM)30.04 "Hg (Apr 3, 7:00 PM)
Low39 °F (Apr 3, 7:00 PM)41% (Apr 6, 4:00 PM)29.77 "Hg (Apr 7, 5:00 PM)
Average79 °F78%29.90 "Hg
* Reported Apr 1 11:00 PM — Apr 16 11:00 PM, Cuiabá, Weather by CustomWeather, © 2014

Note: Actual official high and low records may vary slightly from our data, if they occured in-between our weather recording intervals... More about our weather records

Advertising

Historic Weather Conditions — Data for Previous 24 hours

 ConditionsComfort  
Time TempWeatherWind HumidityBarometerVisibility
11:00 PM
Apr 16
75 °FClear.2 mph83%29.89 "Hg10 mi
10:00 PM75 °FClear.3 mph89%29.89 "Hg10 mi
9:00 PM77 °FClear.2 mph89%29.86 "Hg10 mi
8:00 PM77 °FPassing clouds.1 mph89%29.86 "HgN/A
7:00 PM77 °FScattered showers. Passing clouds.5 mph83%29.83 "HgN/A
6:00 PM81 °FRain. Passing clouds.5 mph79%29.83 "HgN/A
5:00 PM86 °FScattered showers. Scattered clouds.6 mph62%29.83 "HgN/A
4:00 PM88 °FScattered clouds.7 mph59%29.80 "HgN/A
3:00 PM88 °FScattered clouds.6 mph59%29.83 "HgN/A
2:00 PM90 °FScattered clouds.1 mph52%29.83 "HgN/A
1:00 PM88 °FScattered clouds.3 mph59%29.89 "HgN/A
12:00 PM86 °FPassing clouds.5 mph59%29.89 "HgN/A
11:00 AM84 °FPassing clouds.5 mph62%29.92 "HgN/A
10:00 AM82 °FPassing clouds.2 mph66%29.95 "HgN/A
9:00 AM79 °FPassing clouds.3 mph70%29.95 "HgN/A
8:00 AM77 °FPassing clouds.2 mph74%29.92 "HgN/A
7:00 AM70 °FPartly sunny.3 mph94%29.92 "HgN/A
6:00 AM70 °FPartly sunny.No wind94%29.92 "HgN/A
5:00 AM72 °FPartly cloudy.No wind94%29.95 "HgN/A
4:00 AM72 °FPartly cloudy.No wind94%29.95 "HgN/A
3:00 AM72 °FPartly cloudy.No wind94%29.92 "HgN/A
2:00 AM72 °FPartly cloudy.No wind94%29.92 "HgN/A
1:00 AM72 °FPartly cloudy.3 mph94%29.95 "HgN/A
12:00 AM73 °FPartly cloudy.No wind83%29.95 "HgN/A
11:00 PM
Apr 15
73 °FPartly cloudy.No wind83%29.98 "HgN/A
Weather by CustomWeather, © 2014

See weather overview